Location: La Jencia Ranch
(34.2334°N, 107.1134°W)
Time: 00:06:51
(UTC+00:00)

Daily predictions for brighter satellites

Satellite Brightness Start Highest point End
(mag) Time Altitude Azimuth Time Altitude Azimuth Time Altitude Azimuth
CZ-4B DEB 4.3 02:42:28 10° SSE 02:47:49 60° ENE 02:53:11 10° N
Cosmos 1461 4.1 02:45:42 10° SW 02:49:16 43° WNW 02:52:57 10° NNE
Resurs 01 Rocket 1.9 02:45:10 10° S 02:49:31 74° WSW 02:53:53 10° NNW
PAYLOAD B 4.5 02:49:31 10° SSE 02:54:58 56° ENE 03:00:26 10° N
GENESIS II 3.6 02:52:14 10° NNW 02:55:06 71° WSW 02:57:55 10° SSE
Cosmos 1624 Rocket 4.0 02:50:15 10° NNW 02:55:33 77° ENE 03:00:50 10° SSE
SJ-6B 4.2 02:52:32 10° SSW 02:56:03 37° W 02:59:34 10° NNW
ADEOS 3.6 02:51:52 10° SSE 02:57:00 67° ENE 03:02:11 10° N
Cosmos 1371 Rocket 4.0 02:52:03 10° NNW 02:57:21 81° ENE 03:02:34 10° SSE
Okean 3 Rocket 3.6 02:52:51 10° N 02:57:22 87° E 03:01:53 10° S
CZ-4B R/B 3.6 02:52:58 10° SE 02:57:59 43° ENE 03:02:57 10° N
Cosmos 2056 Rocket 3.5 02:54:04 10° NNW 02:59:13 86° ENE 03:04:18 10° SSE
ERS-1 Rocket 4.4 02:57:10 10° ESE 03:00:52 21° ENE 03:04:34 10° NNE
Delta 2 Rocket 3.2 03:01:53 10° W 03:05:47 89° NNE 03:09:55 10° ESE
CSL-04 Rocket 3.6 03:07:08 10° SSE 03:12:24 86° ENE 03:17:42 10° NNW
Cosmos 2333 Rocket 4.5 03:08:42 10° NW 03:12:52 21° W 03:17:01 10° SSW
CSL-04 Debris 4.2 03:08:32 10° SSE 03:13:59 88° ENE 03:19:25 10° NNW
Cosmos 2219 Rocket 2.9 03:08:35 10° NNW 03:13:59 52° WSW 03:19:20 10° S
OAO 3 Rocket 4.0 03:10:27 10° W 03:14:57 39° SSW 03:18:43 14° SE
Cosmos 1066 Rocket 4.3 03:13:23 10° S 03:19:11 87° E 03:25:05 10° N
NOSS 3-2 (C) 4.3 03:12:10 10° NNW 03:20:07 78° ENE 03:28:26 13° SE
Okean-O 3.7 03:19:43 15° ESE 03:22:33 28° ENE 03:26:18 10° NNE
Feng Yun 1-1 Rocket 4.4 03:17:42 10° SSE 03:23:35 88° ENE 03:29:32 10° NNW
Cosmos 1605 Rocket 4.1 03:18:53 10° N 03:24:54 57° E 03:30:23 12° SSE
Meteor PRIRODA 3.7 03:23:51 20° SE 03:25:24 36° ENE 03:28:07 10° N
Cosmos 1908 4.3 03:25:55 10° NNW 03:28:52 35° W 03:31:47 10° SSW
NOSS 2-2 (E) 4.3 03:25:29 10° NNW 03:29:57 55° ENE 03:34:31 18° SE
Cosmos 2237 Rocket 3.3 03:27:38 10° N 03:32:34 30° ENE 03:35:58 17° ESE
Cosmos 1328 Rocket 4.0 03:33:15 17° SSE 03:36:11 40° E 03:40:18 10° NNE
Cosmos 1408 Rocket 4.2 03:32:38 10° NNW 03:36:49 54° W 03:40:59 10° S
Sich 1 3.7 03:33:03 10° NNW 03:37:05 51° W 03:41:07 10° S
Meteor 2-10 Rocket 4.5 03:32:35 10° N 03:37:41 34° ENE 03:40:37 21° SE
ARIANE 6 FM1 Upper Stage 4.2 03:35:04 10° N 03:38:32 25° NE 03:40:44 17° E
Cosmos 1500 Rocket 3.9 03:34:44 10° NNW 03:39:08 65° W 03:43:29 10° S
Cosmos 1110 Rocket 4.0 03:35:16 10° NNW 03:40:28 67° ENE 03:43:56 21° SSE
Cosmos 1818 3.5 03:37:17 10° SSW 03:42:42 78° ESE 03:48:09 10° NNE
Cosmos 1331 Rocket 4.0 03:39:07 10° N 03:44:13 67° ENE 03:47:27 23° SSE
MOS 1 4.3 03:40:37 15° SSE 03:45:25 84° ENE 03:51:06 10° NNW
Cosmos 614 Rocket 3.9 03:43:42 10° SSW 03:48:53 81° ESE 03:54:02 10° NNE
CZ-4 R/B 3.8 03:49:12 10° SW 03:51:48 18° W 03:54:24 10° NW
Ariane Rocket 4.5 03:50:19 18° E 03:52:11 22° ENE 03:56:00 10° NNE
COSMOS 2428 2.9 03:47:11 10° NNW 03:52:51 69° WSW 03:57:03 18° S
USA 305 4.3 03:49:41 10° WSW 03:53:22 36° NW 03:56:52 10° NNE
Cosmos 1300 2.3 03:53:00 10° N 03:56:07 71° W 03:57:21 33° S
USA 215 3.3 03:52:14 21° SSE 03:56:44 71° SW 04:03:16 10° NW
Cosmos 2297 Rocket 3.1 03:51:37 10° SW 03:57:06 51° WNW 04:02:36 10° N
Helios 1A 3.1 03:53:57 10° N 03:57:52 69° WNW 04:01:44 10° SSW
Sakura Rocket 3.5 03:54:26 10° WSW 03:58:12 40° S 03:59:33 32° SE
RESURS DK-1 2.5 03:59:43 36° SSE 04:00:48 46° ESE 04:04:39 10° NE
USA 186 4.4 04:01:48 10° WSW 04:03:00 12° W 04:04:12 10° WNW
CZ-4B R/B 4.2 03:58:57 13° S 04:03:12 51° W 04:08:13 10° NNW
Cosmos 1515 Rocket 4.3 04:02:43 32° ESE 04:03:23 33° E 04:07:21 10° NNE
Helios 1B rocket 3.3 04:05:20 19° SSW 04:07:33 39° W 04:11:01 10° NNW
Terra 1.7 04:07:24 30° SSE 04:09:46 88° WSW 04:14:29 10° NNW
Cosmos 1302 Rocket 4.4 04:05:44 10° N 04:10:50 49° ENE 04:12:39 34° ESE
CZ-4B R/B 4.2 04:08:54 16° SSW 04:11:08 30° W 04:14:14 10° NW
Cosmos 1437 Rocket 3.7 04:12:19 27° ENE 04:12:19 27° ENE 04:14:41 10° NNE
ATLAS 2A CENTAUR R/B 3.4 04:01:23 10° W 04:12:02 34° SSW 04:13:30 29° S
SPOT 5 4.3 04:09:31 10° SSW 04:13:22 30° W 04:17:26 10° NW
Meteor 1-13 Rocket 4.3 04:10:53 26° S 04:14:17 65° E 04:20:06 10° NNE
Okean O Rocket 2.4 04:13:02 21° SSW 04:15:35 45° W 04:19:43 10° NNW
Cosmos 1452 Rocket 3.7 04:13:24 10° NNW 04:18:37 65° WSW 04:21:11 30° S
Cosmos 1000 Rocket 4.4 04:15:54 23° S 04:19:58 80° E 04:26:15 10° N
NOSS 0 Rocket 4.3 04:14:11 10° NNW 04:20:16 61° WSW 04:23:41 27° S
IRS-1C Rocket 4.2 04:19:05 38° SE 04:20:51 58° ENE 04:26:00 10° N
SL-14 R/B 3.5 04:21:58 33° SSW 04:23:35 64° W 04:27:28 10° N
Cosmos 921 Rocket 3.7 04:20:03 13° SSW 04:23:44 52° WNW 04:27:56 10° N
Cosmos 2227 Rocket 2.5 04:20:04 10° SSW 04:25:39 67° WNW 04:31:17 10° NNE
SL-16 R/B 3.6 04:22:59 10° N 04:27:29 24° ENE 04:29:03 21° E
Cosmos 2263 Rocket 2.2 04:27:35 37° S 04:29:43 62° ESE 04:35:19 10° NNE
Spot 2 Rocket 3.4 04:28:13 41° S 04:30:01 86° WSW 04:35:07 10° NNW
Cosmos 2173 Rocket 3.9 04:27:44 10° N 04:33:53 70° E 04:35:56 43° SSE
SL-4 R/B 1.8 04:31:39 10° SW 04:35:48 84° SE 04:39:55 10° NE
ERS-1 Rocket 4.1 04:36:35 21° SSW 04:39:17 37° W 04:43:54 10° NNW
COSMOS 2455 2.8 04:35:12 10° NNW 04:41:15 79° ENE 04:42:58 49° SE
Cosmos 1980 4.0 04:37:21 10° NNW 04:42:55 61° WSW 04:44:46 40° SSW
Cosmos 2100 Rocket 3.9 04:43:58 10° N 04:50:08 81° W 04:52:13 44° S
Cosmos 1953 4.4 04:47:36 10° NNE 04:48:58 16° NE 04:48:58 16° NE
Cosmos 1455 3.8 04:48:16 10° NNW 04:49:44 21° WNW 04:49:44 21° WNW
Cosmos 2219 3.1 04:49:36 45° S 04:51:28 83° ESE 04:57:14 10° NNE
COBE Rocket 4.2 04:48:05 10° NNE 04:52:34 49° E 04:52:34 49° E
Geosat 3.8 04:48:37 10° NNE 04:53:39 87° ESE 04:54:45 56° SSW
Cosmos 1725 Rocket 4.0 04:53:04 10° N 04:59:22 70° E 05:00:36 56° SE
Cosmos 2082 3.6 05:00:01 64° SSE 05:00:43 73° ESE 05:06:26 10° NNE
Lacrosse 4 Rocket 1.8 04:58:24 10° NNW 05:02:03 58° NNE 05:02:03 58° NNE
Cosmos 1140 Rocket 3.6 05:06:15 57° ENE 05:06:15 57° ENE 05:10:45 10° NNE
Meteor 2-16 Rocket 4.3 05:09:10 62° ESE 05:09:43 66° E 05:15:44 10° NNE
Cosmos 2123 Rocket 4.5 05:09:52 31° SW 05:12:44 55° W 05:18:52 10° N
Cosmos 2237 Rocket 3.4 05:11:34 10° NW 05:16:31 32° WSW 05:17:47 29° SW
ARIANE 6 FM1 Upper Stage 4.4 05:14:03 10° WNW 05:16:51 25° W 05:16:51 25° W
Cosmos 1023 Rocket 4.4 05:19:34 82° N 05:19:34 82° N 05:24:26 10° NNE
ATLAS CENTAUR R/B 2.6 05:15:40 10° NW 05:18:01 35° NW 05:18:01 35° NW
Cosmos 407 Rocket 4.3 05:31:13 39° NE 05:31:13 39° NE 05:34:40 10° NNE
Ariane Rocket 4.0 05:30:24 36° WSW 05:30:46 36° W 05:35:27 10° NNW
GP-B 3.7 05:26:34 10° N 05:30:02 53° NNW 05:30:02 53° NNW
Cosmos 2061 Rocket 3.8 05:32:45 10° N 05:39:02 88° W 05:39:22 81° S
Cosmos 1844 Rocket 3.7 05:41:10 34° ENE 05:41:10 34° ENE 05:44:46 10° NE
Cosmos 909 Rocket 4.1 05:54:56 10° NNW 06:02:21 71° WSW 06:02:29 71° WSW
SL-16 R/B 3.1 06:06:24 10° NW 06:10:54 39° W 06:10:54 39° W
USA 234 4.3 06:09:26 10° ENE 06:13:07 31° E 06:13:07 31° E
ASTEX 1 4.3 06:15:24 10° N 06:19:08 45° NW 06:19:08 45° NW
ARIANE 5 R/B 4.2 06:27:48 33° NNW 06:27:48 33° NNW 06:30:20 10° NNW
Cosmos 2344 4.4 06:19:11 10° NNW 06:27:54 66° ENE 06:31:58 43° ESE
Cosmos 1464 Rocket 4.1 06:24:05 10° N 06:29:42 66° NE 06:29:42 66° NE
Cosmos 1943 3.6 06:27:19 10° NNW 06:31:52 59° NNW 06:31:52 59° NNW
Cosmos 1763 Rocket 4.4 06:28:20 10° NNW 06:31:55 45° N 06:31:55 45° N
ATLAS 2AS CENTAUR R/B 3.0 06:34:36 58° E 06:34:36 58° E 06:40:33 10° NE
Cosmos 2034 Rocket 4.5 06:31:22 10° N 06:36:52 51° ENE 06:36:52 51° ENE
SJ 16-02 3.7 06:41:47 18° NE 06:41:47 18° NE 06:43:02 10° NNE
Cosmos 1603 4.3 06:45:25 10° NNW 06:49:53 53° NNE 06:49:53 53° NNE
Cosmos 1844 Rocket 4.4 07:22:47 22° WNW 07:23:27 23° WNW 07:27:51 10° N
BREEZE-M DEB (TANK) 4.0 07:32:37 41° NE 07:32:37 41° NE 07:38:32 10° NE
NOSS 3-1 (C) 4.4 07:32:36 10° NW 07:39:57 53° WSW 07:39:57 53° WSW
Cosmos 841 Rocket 4.4 07:43:49 10° NNW 07:47:23 44° NNW 07:47:23 44° NNW
SeaSat 1 3.8 07:55:41 33° NW 07:55:41 33° NW 07:58:26 10° NNW
USA 234 4.0 07:52:22 10° NNE 07:58:33 47° NW 08:00:27 37° W
USA 59 Rocket 1.9 07:55:58 10° NNW 07:57:41 26° NNW 07:57:41 26° NNW
IDEFIX/ARIANE 42P 3.9 08:00:59 10° NE 08:04:58 30° E 08:04:58 30° E
Cosmos 1833 Rocket 3.2 08:06:35 10° N 08:12:04 52° ENE 08:12:13 52° ENE
Cosmos 2279 Rocket 4.1 08:07:37 10° N 08:13:13 66° WNW 08:13:13 66° WNW
ATLAS 3B R/B 3.9 08:07:06 10° NNW 08:14:31 43° NE 08:21:28 10° ESE
SJ 16-02 3.9 08:18:21 13° NW 08:18:21 13° NW 08:19:32 10° NNW
CZ-2C R/B 3.5 08:18:03 10° N 08:22:29 54° NNW 08:22:29 54° NNW
NPP 4.5 08:19:11 10° NNE 08:24:05 41° E 08:24:05 41° E
ATLAS 2AS CENTAUR R/B 4.3 08:21:59 20° W 08:24:56 26° NW 08:30:37 10° N
MSX 4.3 08:20:58 10° NNE 08:26:31 49° E 08:26:34 49° ESE
NOSS 3-1 (A) 4.3 08:21:15 10° NW 08:28:56 53° WSW 08:29:00 53° WSW
Cosmos 1428 Rocket 4.3 08:30:22 79° ESE 08:30:30 80° E 08:36:37 10° N
Cosmos 2180 Rocket 4.4 08:24:29 10° N 08:30:21 72° WNW 08:30:21 72° WNW
Okean 2 Rocket 4.0 08:30:43 10° N 08:33:58 46° NNE 08:33:58 46° NNE
Resurs 1-4 Rocket 3.5 08:33:38 10° NE 08:38:02 27° E 08:38:42 26° ESE
Cosmos 1025 Rocket 4.1 08:40:45 42° N 08:40:45 42° N 08:43:35 10° N
Cosmos 2278 Rocket 2.1 08:40:12 81° NNW 08:40:12 81° NNW 08:45:40 10° NNE
CZ-2C R/B 3.1 08:41:49 49° NW 08:41:49 49° NW 08:45:56 10° NNW
Cosmos 2082 Rocket 4.4 08:38:24 10° N 08:42:43 22° ENE 08:47:00 10° ESE
Okean 1 Rocket 3.8 08:39:55 10° N 08:43:27 52° NNE 08:43:27 52° NNE
Cosmos 1943 Rocket 2.1 08:45:06 81° NNW 08:45:06 81° NNW 08:50:23 10° NNE
CZ-2D R/B 3.2 08:48:25 10° NNE 08:53:18 35° E 08:54:16 32° ESE
Cosmos 1975 Rocket 4.0 08:57:24 41° E 08:57:24 41° E 09:01:33 10° NNE
Cosmos 292 Rocket 3.8 09:03:21 74° ENE 09:03:21 74° ENE 09:07:56 10° NNE
USA 81 4.1 09:03:44 64° WNW 09:03:44 64° WNW 09:08:46 10° N
MOZ.5/SAFIR/RUBIN 5/SL-8 3.6 09:15:15 84° ESE 09:15:20 85° ENE 09:19:56 10° NNW
Cosmos 1812 4.2 09:12:20 10° N 09:14:02 28° NNE 09:14:02 28° NNE
Cosmos 2369 Rocket 4.1 09:14:06 15° SE 09:16:49 21° E 09:20:58 10° NE
Cosmos 158 Rocket 3.7 09:12:43 10° NNW 09:17:46 88° WSW 09:18:07 77° S
H-2A R/B 2.3 09:16:23 10° N 09:19:43 54° NNW 09:19:43 54° NNW
ADEOS II 2.8 09:17:12 10° NNE 09:22:13 45° E 09:23:56 34° SE
USA 229 DEB 4.0 09:15:35 10° NNW 09:23:23 89° ENE 09:31:42 10° SSE
USA 229 4.0 09:15:42 10° NNW 09:23:29 88° ENE 09:31:48 10° SSE
OAO 1 Rocket 4.4 09:23:46 56° W 09:24:54 85° N 09:30:15 10° E
Cosmos 1092 Rocket 4.1 09:24:42 49° WSW 09:25:53 57° W 09:32:06 10° N
Meteor 2-1 Rocket 4.2 09:20:11 10° N 09:26:09 79° W 09:27:46 50° S
COSMOS 2441 4.2 09:21:27 10° N 09:26:18 81° WNW 09:26:49 70° SW
Cosmos 1455 Rocket 2.8 09:25:48 10° N 09:30:09 83° W 09:30:09 83° W
FENGYUN 3A 4.0 09:37:25 10° N 09:42:35 50° WNW 09:43:45 42° WSW
IDEFIX/ARIANE 42P 3.8 09:40:36 10° NNW 09:44:53 26° WNW 09:45:40 25° W
Envisat 3.3 09:43:00 10° NNE 09:48:02 62° E 09:50:20 31° S
Cosmos 2228 3.4 09:44:03 10° N 09:48:06 55° E 09:50:02 28° SSE
ATLAS 5 CENTAUR R/B 1.9 09:53:50 33° NW 09:53:50 33° NW 09:56:22 10° NNE
Cosmos 1833 Rocket 4.5 09:51:57 10° WNW 09:53:51 15° W 09:53:51 15° W
Atlas Centaur 2 3.3 09:52:24 33° SW 09:55:48 51° SSE 10:03:36 10° E
Cosmos 836 Rocket 4.5 09:51:39 10° NNW 09:56:55 83° ENE 10:01:37 13° SSE
H-2A R/B 3.7 09:53:29 10° NE 09:58:00 29° E 10:02:22 10° SSE
USA 281 3.5 09:56:12 10° NNE 10:02:42 62° ESE 10:07:17 20° S
ATLAS 3B R/B 3.4 09:58:09 10° NW 10:05:08 38° WSW 10:08:31 25° SSW
Cosmos 2098 Rocket 2.9 10:08:17 10° NNW 10:11:11 38° WNW 10:11:11 38° WNW
Chandra Rocket (1) 3.5 10:12:41 18° SSE 10:13:37 20° SE 10:18:16 10° E
Cosmos 1544 Rocket 3.4 10:09:53 10° N 10:14:11 89° E 10:17:08 20° S
Resurs 1-4 Rocket 3.1 10:13:08 10° N 10:17:43 31° WNW 10:19:44 24° WSW
COSMOS 2406 3.3 10:12:52 10° NNW 10:18:39 84° ENE 10:24:23 10° SSE
ALOS 2.7 10:15:43 10° N 10:20:02 44° WNW 10:21:50 29° SW
Cosmos 1777 Rocket 4.5 10:18:10 29° SW 10:20:28 46° WNW 10:25:31 10° N
NOSS 3-3 (A) 3.9 10:22:05 27° WSW 10:24:47 54° NW 10:30:29 10° NNE
Cosmos 2278 Rocket 4.4 10:23:48 10° WNW 10:24:53 10° NW 10:25:57 10° NW
Cosmos 2082 Rocket 2.5 10:21:32 10° NNW 10:26:58 47° WSW 10:32:14 11° S
Cosmos 1656 Rocket 4.2 10:26:10 24° SW 10:29:11 45° WNW 10:34:35 10° N
Cosmos 1943 Rocket 4.4 10:28:42 10° WNW 10:29:22 10° NW 10:30:04 10° NW
Cosmos 1354 Rocket 4.2 10:28:44 24° SW 10:31:46 55° WNW 10:36:57 10° N
CZ-2D R/B 3.4 10:28:44 10° NNW 10:33:01 25° WNW 10:35:31 18° WSW
Meteor 1-28 Rocket 3.7 10:29:46 10° SSE 10:33:06 54° ENE 10:36:27 10° N
METEOR-M 4.1 10:30:01 10° N 10:35:21 76° WNW 10:39:39 16° SSW
AQUA 4.1 10:32:57 10° N 10:37:28 49° WNW 10:40:26 20° SW
CZ-2C R/B 3.3 10:34:04 10° NNE 10:38:31 44° E 10:43:03 10° S
SL-16 R/B 2.5 10:39:35 10° SSE 10:45:46 81° WSW 10:52:01 10° NNW
Cosmos 1862 3.8 10:42:18 10° S 10:45:54 54° E 10:49:32 10° NNE
Centaur AC-116 3.9 10:46:00 15° S 10:46:00 15° S 10:47:46 10° SE
ARGOS 4.2 10:49:00 10° NNE 10:54:09 44° E 10:59:17 10° S
Cosmos 2285 Rocket 4.2 10:49:45 15° SW 10:54:57 55° WNW 11:01:10 10° N
Cosmos 2369 Rocket 2.7 10:55:53 14° SW 11:00:25 44° WNW 11:05:53 10° N
ADEOS II 3.7 10:57:49 10° NNW 11:01:22 19° WNW 11:04:46 11° WSW
Cosmos 1726 Rocket 4.1 10:58:39 10° N 11:02:46 60° E 11:07:00 10° SSE
Cosmos 2297 4.4 11:00:47 13° SW 11:05:16 37° WNW 11:10:28 10° N
Cosmos 2058 3.8 11:05:13 13° SW 11:08:16 30° W 11:11:49 10° NNW
Helios 1A Rocket 2.8 11:06:20 10° SSE 11:09:51 74° ENE 11:13:25 10° N
OAO 1 Rocket 4.5 11:05:14 10° W 11:10:34 88° S 11:15:55 10° ESE
Cosmos 1933 4.4 11:07:06 10° N 11:10:49 46° E 11:14:32 10° SSE
Gbstr 26 Del rocket 4.3 11:05:40 12° SW 11:11:47 72° NW 11:19:24 10° NE
SL-4 R/B 4.3 11:09:21 10° NNW 11:12:31 25° NNE 11:15:32 10° E
BlueWalker 3 3.9 11:10:01 10° S 11:12:47 21° SE 11:15:33 10° ENE
Meteor 2-3 Rocket 4.1 11:07:26 10° S 11:13:06 73° E 11:18:51 10° NNE
Cosmos 1655 Rocket 4.4 11:10:11 10° SSW 11:16:10 45° W 11:22:14 10° N
ACS3 Solar Sail 4.3 11:13:00 10° NE 11:16:45 17° E 11:20:33 10° SE
Cosmos 1939 Rocket 3.8 11:16:42 10° NNE 11:20:14 44° E 11:23:49 10° S
CZ-4C R/B 3.6 11:18:04 10° SSE 11:21:12 23° ESE 11:24:44 10° ENE
Cosmos 1782 3.0 11:18:10 10° NNW 11:21:38 42° W 11:25:04 10° SSW
Cosmos 1400 Rocket 3.1 11:18:44 10° NNW 11:22:21 41° W 11:25:59 10° SSW
Cosmos 2315 Rocket 4.4 11:20:42 10° NNW 11:26:35 43° W 11:32:30 10° SSW
